This is the latest recevied weather packets stored in our database for station/object KO4LCK. If no packets are shown the sender has not sent any weather packets the latest 10 day(s).
| Time | Temp. | Humidity | Pressure | Rain* | Wind** | Luminosity | Snow |
|---|---|---|---|---|---|---|---|
| 1777987858 | 17.78° C | 63% | 1016.7 hPa | 0 mm | - | 299 W/m² | - |
| 1777987555 | 17.78° C | 64% | 1016.8 hPa | 0 mm | - | 336 W/m² | - |
| 1777987253 | 17.22° C | 64% | 1016.6 hPa | 0 mm | - | 318 W/m² | - |
| 1777986949 | 17.22° C | 67% | 1016.4 hPa | 0 mm | - | 300 W/m² | - |
| 1777986647 | 16.67° C | 68% | 1016.9 hPa | 0 mm | - | 285 W/m² | - |
| 1777986345 | 16.11° C | 71% | 1016.9 hPa | 0 mm | - | 270 W/m² | - |
| 1777986043 | 15.56° C | 73% | 1016.9 hPa | 0 mm | - | 255 W/m² | - |
| 1777985739 | 15° C | 70% | 1016.7 hPa | 0 mm | - | 240 W/m² | - |
| 1777985436 | 15° C | 70% | 1016.7 hPa | 0 mm | - | 220 W/m² | - |
| 1777985133 | 15° C | 72% | 1016.6 hPa | 0 mm | - | 165 W/m² | - |
| 1777984829 | 13.89° C | 74% | 1016.4 hPa | 0 mm | - | 187 W/m² | - |
| 1777984526 | 13.33° C | 79% | 1016.1 hPa | 0 mm | - | 136 W/m² | - |
| 1777984222 | 12.22° C | 85% | 1016.4 hPa | 0 mm | - | 106 W/m² | - |
| 1777983919 | 11.67° C | 89% | 1016 hPa | 0 mm | - | 50 W/m² | - |
| 1777983616 | 11.67° C | 89% | 1015.9 hPa | 0 mm | - | 51 W/m² | - |
| 1777983312 | 11.67° C | 89% | 1016 hPa | 0 mm | - | 42 W/m² | - |
| 1777983009 | 11.67° C | 89% | 1016 hPa | 0 mm | - | 31 W/m² | - |
| 1777982706 | 11.67° C | 89% | 1015.8 hPa | 0 mm | - | 27 W/m² | - |
| 1777982405 | 11.67° C | 89% | 1015.8 hPa | 0 mm | - | 32 W/m² | - |
| 1777982101 | 11.11° C | 90% | 1015.8 hPa | 0 mm | - | 43 W/m² | - |
| 1777981799 | 11.11° C | 91% | 1015.7 hPa | 0 mm | - | 48 W/m² | - |
| 1777981495 | 11.11° C | 91% | 1015.7 hPa | 0 mm | - | 44 W/m² | - |
| 1777981192 | 10.56° C | 92% | 1015.5 hPa | 0 mm | - | 41 W/m² | - |
| 1777980888 | 10.56° C | 92% | 1015.5 hPa | 0 mm | - | 34 W/m² | - |
| 1777980584 | 10° C | 93% | 1015.4 hPa | 0 mm | - | 30 W/m² | - |
* Rain latest hour (hover to see other rain measurements)
** Current wind speed in m/s (hover to see current wind gust speed)